This demonstration page uses our WeatherBlox Daily Observations layout. Learn more.

Left ArrowRight Arrow

40.92945, -100.16068

Hourly Observations for February 22, 2016

Temp ( °F °C ) Dew Point ( °F °C ) Humidity (%) Winds ( mph kmh ) Pressure ( in mb ) Visibility ( mi km ) Precip ( " mm )
12:15 am 00:15 Clear 29 -1.8 27 -3 92 92 N N/A 30.33 1027 10 16.0934 N/A
12:35 am 00:35 Clear 27 -2.7 25 -3.9 92 92 N N/A 30.33 1027 7 11.26538 N/A
12:55 am 00:55 Clear 26 -3.4 24 -4.5 92 92 N N/A 30.33 1027 10 16.0934 N/A
1:15 am 01:15 Clear 26 -3.4 24 -4.4 93 93 NE 3 6 30.3 1026 7 11.26538 N/A
1:35 am 01:35 Clear 25 -3.8 23 -4.9 92 92 NE 3 6 30.33 1027 10 16.0934 N/A
1:55 am 01:55 Clear 26 -3.3 24 -4.4 92 92 N N/A 30.3 1026 10 16.0934 N/A
2:15 am 02:15 Clear 26 -3.2 24 -4.2 93 93 N N/A 30.3 1026 10 16.0934 N/A
2:35 am 02:35 Clear 26 -3.4 24 -4.5 92 92 N N/A 30.27 1025 7 11.26538 N/A
2:55 am 02:55 Clear 25 -3.9 23 -5.1 91 91 E 3 6 30.27 1025 10 16.0934 N/A
3:15 am 03:15 Clear 26 -3.5 23 -4.8 91 91 N N/A 30.24 1024 10 16.0934 N/A
3:35 am 03:35 Clear 24 -4.5 21 -6.1 89 89 N N/A 30.24 1024 10 16.0934 N/A
3:55 am 03:55 Mostly Cloudy with Freezing Fog 24 -4.5 22 -5.7 91 91 N N/A 30.24 1024 0.5 0.80467 N/A
4:15 am 04:15 Mostly Cloudy with Freezing Fog 24 -4.3 22 -5.3 93 93 N N/A 30.24 1024 0.5 0.80467 N/A
4:35 am 04:35 Clear with Mist and Fog 23 -4.8 22 -5.8 93 93 N N/A 30.27 1025 2 3.21868 N/A
4:55 am 04:55 Mostly Cloudy with Mist and Fog 24 -4.6 22 -5.6 93 93 N N/A 30.27 1025 0.75 1.207005 N/A
5:15 am 05:15 Clear 23 -5.1 21 -6.3 91 91 N N/A 30.27 1025 7 11.26538 N/A
5:35 am 05:35 Clear 23 -5.2 20 -6.5 91 91 N N/A 30.27 1025 10 16.0934 N/A
5:55 am 05:55 Mostly Cloudy 24 -4.5 22 -5.5 93 93 ESE 3 6 30.24 1024 10 16.0934 N/A
6:15 am 06:15 Cloudy 28 -2 27 -2.9 94 94 SSE 3 6 30.21 1023 10 16.0934 N/A
6:35 am 06:35 Cloudy with Mist and Fog 31 -0.5 29 -1.4 94 94 SSE 9 15 30.18 1022 1 1.60934 N/A
6:55 am 06:55 Cloudy with Fog 32 -0.1 30 -1 94 94 SSE 9 15 30.18 1022 0.25 0.402335 N/A
7:15 am 07:15 Cloudy with Fog 32 undefined 31 -0.7 95 95 SSE 7 11 30.18 1022 0.25 0.402335 N/A
7:35 am 07:35 Cloudy with Fog 32 undefined 31 -0.5 96 96 SSE 10 17 30.18 1022 0.25 0.402335 N/A
7:55 am 07:55 Cloudy with Fog 32 0.2 31 -0.3 96 96 SSE 8 13 30.18 1022 0.25 0.402335 N/A
8:15 am 08:15 Cloudy with Mist and Fog 33 0.5 32 -0.1 96 96 S 10 17 30.18 1022 1.25 2.011675 N/A
8:35 am 08:35 Cloudy with Mist and Fog 33 0.5 32 undefined 96 96 S 8 13 30.18 1022 1.25 2.011675 N/A
8:55 am 08:55 Cloudy with Mist and Fog 33 0.6 32 undefined 96 96 S 13 20 30.18 1022 2 3.21868 N/A
9:15 am 09:15 Cloudy with Mist and Fog 33 0.7 32 undefined 95 95 SSE 13 20 30.18 1022 4 6.43736 N/A
9:35 am 09:35 Cloudy with Mist and Fog 34 1 32 0.1 94 94 SSE 14 22 30.12 1020 1.5 2.41401 N/A
9:55 am 09:55 Cloudy with Mist and Fog 35 1.4 33 0.6 94 94 S 13 20 30.18 1022 2 3.21868 N/A
10:15 am 10:15 Cloudy 35 1.5 33 0.7 94 94 S 10 17 30.12 1020 7 11.26538 N/A
10:35 am 10:35 Cloudy 36 2 34 1.2 95 95 S 10 17 30.12 1020 10 16.0934 N/A
10:55 am 10:55 Cloudy 37 2.5 34 1.2 91 91 SSE 15 24 30.12 1020 10 16.0934 N/A
11:15 am 11:15 Cloudy 37 2.9 34 1.1 88 88 S 12 19 30.12 1020 10 16.0934 N/A
11:35 am 11:35 Cloudy 38 3.2 33 0.8 84 84 S 16 26 30.12 1020 10 16.0934 N/A
11:55 am 11:55 Cloudy 38 3.2 33 0.7 84 84 S 12 19 30.12 1020 10 16.0934 N/A
12:15 pm 12:15 Cloudy 39 3.8 34 1 82 82 S 13 20 30.09 1019 10 16.0934 N/A
12:35 pm 12:35 Cloudy 40 4.5 34 0.9 78 78 SSE 12 19 30.09 1019 10 16.0934 N/A
12:55 pm 12:55 Mostly Cloudy 43 5.9 35 1.7 75 75 S 10 17 30.06 1018 10 16.0934 N/A
1:15 pm 13:15 Partly Cloudy 45 7.1 35 1.9 70 70 SSE 12 19 30 1016 10 16.0934 N/A
1:35 pm 13:35 Partly Cloudy 47 8.6 35 1.4 61 61 S 10 17 30 1016 10 16.0934 N/A
1:55 pm 13:55 Partly Cloudy 49 9.4 35 1.4 58 58 S 10 17 29.97 1015 10 16.0934 N/A
2:15 pm 14:15 Sunny 50 10.2 34 0.9 53 53 S 14 22 29.94 1014 10 16.0934 N/A
2:35 pm 14:35 Sunny 51 10.6 33 0.7 51 51 SSW 10 17 29.94 1014 10 16.0934 N/A
2:55 pm 14:55 Sunny 53 11.4 32 0.2 46 46 S 9 15 29.91 1013 10 16.0934 N/A
3:15 pm 15:15 Sunny 53 11.6 31 -0.6 43 43 SSW 12 19 29.91 1013 10 16.0934 N/A
3:35 pm 15:35 Partly Cloudy 53 11.9 31 -0.7 42 42 SSW 9 15 29.91 1013 10 16.0934 N/A
3:55 pm 15:55 Partly Cloudy 54 12 30 -0.9 41 41 SSW 10 17 29.91 1013 10 16.0934 N/A
4:15 pm 16:15 Partly Cloudy 53 11.7 31 -0.8 42 42 S 13 20 29.91 1013 10 16.0934 N/A
4:35 pm 16:35 Partly Cloudy 53 11.5 30 -0.9 43 43 SSE 12 19 29.91 1013 10 16.0934 N/A
4:55 pm 16:55 Sunny 52 11.1 31 -0.8 44 44 S 12 19 29.91 1013 10 16.0934 N/A
5:15 pm 17:15 Sunny 51 10.5 31 -0.6 46 46 S 9 15 29.91 1013 10 16.0934 N/A
5:35 pm 17:35 Sunny 49 9.5 31 -0.5 50 50 SSE 8 13 29.91 1013 10 16.0934 N/A
5:55 pm 17:55 Sunny 49 9.6 31 -0.5 50 50 SE 6 9 29.91 1013 10 16.0934 N/A
6:15 pm 18:15 Sunny 48 8.8 32 -0.2 54 54 SE 6 9 29.94 1014 10 16.0934 N/A
6:35 pm 18:35 Clear 47 8.1 32 -0.1 57 57 ESE 6 9 29.94 1014 10 16.0934 N/A
6:55 pm 18:55 Clear 46 7.6 32 -0.1 59 59 ESE 7 11 29.94 1014 10 16.0934 N/A
7:15 pm 19:15 Partly Cloudy 45 7.2 32 undefined 61 61 ESE 8 13 29.94 1014 10 16.0934 N/A
7:35 pm 19:35 Clear 44 6.7 32 undefined 63 63 ESE 6 9 29.94 1014 10 16.0934 N/A
7:55 pm 19:55 Clear 44 6.5 32 undefined 64 64 ESE 7 11 29.97 1015 10 16.0934 N/A
8:15 pm 20:15 Partly Cloudy 43 6.3 32 undefined 64 64 SE 6 9 30 1016 10 16.0934 N/A
8:35 pm 20:35 Cloudy 43 6.3 32 undefined 64 64 SE 6 9 30 1016 10 16.0934 N/A
8:55 pm 20:55 Cloudy 43 6.1 32 -0.1 65 65 SE 5 7 30 1016 10 16.0934 N/A
9:15 pm 21:15 Cloudy 42 5.8 32 -0.1 66 66 SSE 6 9 30.03 1017 10 16.0934 N/A
9:35 pm 21:35 Cloudy 42 5.5 32 -0.1 68 68 S 3 6 30.03 1017 10 16.0934 N/A
9:55 pm 21:55 Mostly Cloudy 40 4.7 31 -0.4 70 70 S 3 6 30.03 1017 10 16.0934 N/A
10:15 pm 22:15 Partly Cloudy 39 3.8 31 -0.6 73 73 WSW 7 11 30.03 1017 10 16.0934 N/A
10:35 pm 22:35 Mostly Cloudy 41 5 31 -0.4 68 68 W 5 7 30.06 1018 10 16.0934 N/A
10:55 pm 22:55 Cloudy 40 4.3 32 0.1 74 74 N 6 9 30.06 1018 10 16.0934 N/A
11:15 pm 23:15 Cloudy 40 4.7 32 0.1 72 72 NNE 5 7 30.06 1018 10 16.0934 N/A
11:35 pm 23:35 Cloudy with Light Rain 40 4.6 33 0.8 77 77 ESE 6 9 30.06 1018 10 16.0934 N/A
11:55 pm 23:55 Cloudy 40 4.3 35 1.4 82 82 N N/A 30.06 1018 10 16.0934 N/A

Powered by AerisWeather